Preview of NWS' New Version of Forecast
This preview is not operational and should not be used for support decisions.

Regional Weather Roundup (RWR)

Issued by National Weather Service (NWS)

                            
000
ASUS46 KPQR 210310
RWROR 

OREGON REGIONAL WEATHER ROUNDUP
NATIONAL WEATHER SERVICE PORTLAND OR
800 PM PDT SAT APR 20 2019

NOTE: "FAIR" INDICATES FEW OR NO CLOUDS BELOW 12,000 FEET WITH
NO SIGNIFICANT WEATHER AND/OR OBSTRUCTIONS TO VISIBILITY.

ORZ001>013-210400-
NORTHWEST OREGON

  
CITY           SKY/WX    TMP DP  RH WIND       PRES   REMARKS
ASTORIA        CLOUDY    51  44  77 W8        30.14R                  
TILLAMOOK      CLOUDY    52  45  76 W7        30.17R                  
NEWPORT        CLOUDY    50  43  76 NW9       30.20R                  
PORTLAND       PTCLDY    60  44  55 NW10      30.07R                  
VANCOUVER WA   CLEAR     61  44  53 NW8       30.06R                  
SCAPPOOSE      CLEAR     60  46  59 VRB6      30.07R                  
HILLSBORO      CLEAR     57  46  66 NW10      30.07R                  
AURORA         MOCLDY    57  46  66 SW10      30.09R                  
MCMINNVILLE    CLOUDY    54  46  74 SW10      30.09R                  
SALEM          CLEAR     52  43  71 NW10      30.09R                  
CORVALLIS      CLEAR     50  44  80 W13G22    30.12R                  
EUGENE         MOCLDY    53  43  68 W12       30.12R                  
$$

ORZ021-028-210400-
SOUTHWEST OREGON

  
CITY           SKY/WX    TMP DP  RH WIND       PRES   REMARKS
NORTH BEND     CLOUDY    52  45  76 NW12      30.20R                  
BROOKINGS      CLEAR     52  43  71 NW14G21   30.07R                  
ROSEBURG       PTCLDY    53  41  63 NW7       30.13R                  
SEXTON SUMMIT  FOG       39  38  96 VRB3      30.07R VSB 1/4          
GRANTS PASS    CLOUDY    54  41  62 N10       30.12R                  
MEDFORD        MOCLDY    54  38  54 NW9       30.08R                  
$$

ORZ014>016-041-210400-
COLUMBIA GORGE

  
CITY           SKY/WX    TMP DP  RH WIND       PRES   REMARKS
TROUTDALE      CLEAR     61  42  49 NW7       30.06R                  
HOOD RIVER     CLEAR     57  41  54 MISG      30.01R                  
THE DALLES     MOCLDY    61  41  47 W12       29.98R                  
$$

ORZ029>031-041-044-049-050-061>064-502-503-505>511-210400-
EASTERN OREGON

  
CITY           SKY/WX    TMP DP  RH WIND       PRES   REMARKS
MADRAS         CLEAR     46  34  61 W13       30.03R                  
REDMOND        CLOUDY    50  40  68 NW8       30.02R                  
BEND           MOCLDY    46  39  76 NW12      30.01R                  
PRINEVILLE     CLOUDY    48  37  66 NW17      30.01R                  
KLAMATH FALLS  MOCLDY    48  36  63 NW15      29.97R                  
LAKEVIEW       CLOUDY    44  40  85 N7        29.96R                  
HERMISTON      PTCLDY    58  47  66 W9        29.92R                  
PENDLETON      CLEAR     56  43  61 S3        29.93R                  
JOHN DAY       CLOUDY    47  40  77 NW8       29.96R                  
MEACHAM        PTCLDY    43  40  89 CALM      29.95R                  
LA GRANDE      CLOUDY    50  43  77 NW9       29.95R                  
BAKER CITY     CLOUDY    49  38  65 W17       29.92R                  
BURNS          CLOUDY    47  38  71 NW14      29.93R                  
ROME             N/A     48  43  82 MISG      29.88R                  
ONTARIO        CLOUDY    55  45  68 NW15      29.86R                  
$$